Vorticity
nan nan nan nan nan nan nan nan nan nan nan nan nan nan nan nan nan nan nan nan nan nan nan nan nan nan nan nan nan nan nan nan nan nan nan nan nan nan nan nan nan nan nan nan nan nan nan nan nan nan nan nan nan nan nan nan nan nan nan nan nan nan nan nan nan nan nan nan nan
nan 8 8 9 9 9 8 8 7 7 8 8 8 9 9 9 9 9 9 8 7 7 8 8 9 9 8 8 9 8 8 8 8 8 8 8 8 9 9 8 8 8 8 9 9 9 8 8 10 11 11 10 8 8 9 9 8 8 8 10 12 9 8 9 10 9 10 12 nan
nan 7 8 8 9 9 9 8 8 8 8 9 9 10 10 10 10 9 9 9 8 8 8 9 9 9 8 9 9 8 7 7 8 8 8 8 9 9 9 8 7 8 9 8 8 8 8 9 11 10 9 7 8 10 11 9 8 9 9 11 12 9 8 9 10 10 10 10 nan
nan 8 8 8 9 9 9 8 8 8 9 10 10 10 11 11 10 9 9 8 8 9 10 10 10 10 9 8 7 8 7 7 8 8 8 8 9 9 9 8 8 8 8 8 8 8 8 10 12 10 8 8 10 10 8 7 8 9 10 10 9 10 10 10 10 9 9 8 nan
nan 9 8 8 8 8 8 7 7 8 9 10 10 10 10 10 9 9 9 8 9 9 10 10 10 10 9 8 7 7 8 8 8 9 8 8 9 9 8 8 9 8 8 7 7 8 10 13 12 10 9 8 7 8 8 8 9 9 9 8 8 9 9 9 10 9 8 6 nan
nan 8 9 9 9 9 9 8 8 9 9 9 8 9 9 9 9 9 9 9 9 9 10 11 10 9 8 8 8 8 8 8 8 8 8 8 8 8 8 9 9 9 9 8 7 8 11 13 11 9 10 8 8 10 7 6 7 7 8 8 8 8 7 8 9 8 5 4 nan
nan 8 8 9 9 9 9 10 9 9 9 8 7 7 8 9 8 9 10 10 9 9 10 10 8 8 7 8 8 8 9 9 8 8 8 9 8 8 8 8 8 8 8 8 9 10 11 11 10 9 8 8 9 8 5 4 6 7 7 7 7 7 7 8 9 7 4 4 nan
nan 9 9 8 8 8 9 9 9 9 9 8 7 7 8 9 9 9 10 10 9 8 9 8 8 8 8 8 8 8 8 9 9 9 9 8 7 8 8 8 8 8 8 8 9 10 12 11 10 8 7 7 8 7 6 6 7 8 9 9 9 8 9 9 8 7 6 6 nan
nan 9 9 8 8 8 8 8 8 8 8 8 9 8 9 9 8 9 10 9 8 8 8 8 7 7 7 7 8 9 9 10 10 10 9 8 7 7 8 8 8 8 8 8 7 9 12 13 10 8 7 7 7 7 7 7 8 10 13 14 11 9 8 7 7 7 6 7 nan
nan 9 9 8 8 8 8 7 7 7 8 9 9 9 9 8 8 9 9 9 7 7 8 8 7 7 7 7 9 9 10 10 10 9 9 8 7 8 8 8 8 9 9 8 8 8 12 12 10 8 8 7 7 7 6 6 7 10 14 13 6 5 7 8 7 7 7 7 nan
nan 9 9 8 7 7 7 7 7 7 7 8 8 9 8 8 9 9 9 8 6 6 8 8 7 8 8 9 9 9 10 10 9 7 6 7 9 9 9 9 10 10 9 8 8 9 10 9 7 8 10 9 8 7 6 5 6 8 11 7 3 5 8 8 8 8 8 7 nan
nan 9 9 8 7 6 6 7 8 8 8 7 7 8 8 8 8 8 8 7 7 8 9 9 8 8 9 9 9 9 9 9 7 6 5 8 11 10 10 11 11 11 10 9 9 9 9 8 7 9 9 9 9 7 5 5 7 8 8 6 8 9 9 8 10 9 8 6 nan
nan 9 9 8 6 6 8 9 10 9 7 7 7 7 8 8 8 8 7 7 8 9 9 9 9 9 9 9 9 8 8 6 6 6 6 8 10 10 11 12 12 12 11 10 9 9 8 7 7 8 8 9 9 8 6 6 8 9 8 9 10 9 9 10 11 11 8 6 nan
nan 9 8 7 7 8 10 11 10 8 6 7 7 7 8 9 8 8 7 6 8 9 9 9 9 8 7 7 7 5 6 6 6 7 8 10 11 10 10 9 9 11 11 10 10 9 8 7 7 7 8 9 9 9 7 8 8 9 9 9 9 9 9 11 11 11 10 10 nan
nan 9 8 8 8 9 10 10 8 6 5 7 8 8 10 10 8 8 7 8 8 9 9 9 8 7 6 6 5 5 8 9 9 10 9 10 11 11 8 7 9 10 10 11 11 9 8 8 8 8 8 8 8 8 7 8 8 8 8 8 8 9 9 10 10 10 10 12 nan
nan 9 8 9 9 9 9 8 7 6 5 7 9 9 10 8 7 8 9 9 9 8 7 7 8 7 6 6 8 10 11 11 10 10 9 9 9 10 8 9 10 9 9 10 10 9 8 8 8 7 7 7 7 7 7 8 8 7 7 7 8 9 9 9 9 8 8 10 nan
nan 9 9 9 8 8 7 8 8 7 6 7 9 9 9 7 8 8 8 8 8 7 6 7 9 9 8 8 9 10 11 10 9 9 10 9 8 9 10 10 9 9 9 9 9 9 8 8 7 7 7 7 6 7 7 8 8 8 8 8 8 8 9 8 7 7 7 7 nan
nan 8 8 8 7 6 7 8 8 7 7 8 10 9 8 7 8 8 8 7 7 7 7 9 9 9 8 8 9 10 9 8 9 10 10 9 9 9 10 9 8 8 9 8 8 9 9 8 7 7 7 7 7 8 8 9 9 8 8 8 8 8 8 7 7 8 7 7 nan
nan 8 8 7 6 6 7 7 8 8 8 9 9 8 8 8 9 9 9 8 7 8 8 9 9 9 8 8 9 9 8 8 9 10 11 10 10 9 9 8 9 8 7 7 8 10 9 8 7 7 7 8 8 9 9 10 9 9 9 9 9 9 8 8 9 9 8 8 nan
nan 8 7 6 6 7 7 8 9 9 8 8 9 9 8 8 9 9 9 8 8 8 9 9 9 8 8 9 10 10 10 10 9 10 12 12 10 9 9 10 10 9 8 8 9 10 9 8 8 8 9 9 9 10 10 10 9 8 9 10 9 9 9 9 9 9 8 7 nan
nan 7 6 6 7 8 8 9 9 9 9 9 9 9 9 9 9 9 8 8 9 10 10 9 9 8 9 10 11 11 11 10 9 10 11 10 9 8 8 10 10 10 10 10 10 10 10 9 10 10 10 11 11 11 10 9 7 7 9 8 8 9 9 10 10 9 8 8 nan
nan 8 8 8 8 8 8 9 10 10 10 10 9 9 9 9 9 9 9 9 11 11 10 10 10 10 10 10 10 10 11 9 8 9 8 7 7 8 8 10 11 11 12 12 12 12 12 12 12 12 12 13 12 10 8 6 6 7 8 7 8 9 10 11 10 9 9 9 nan
nan 8 8 8 8 8 9 9 10 11 10 10 8 8 8 7 8 10 10 11 11 10 10 10 10 10 10 9 9 10 10 9 9 9 8 8 8 9 10 11 12 13 13 14 15 14 15 15 15 15 15 14 11 9 6 5 6 7 8 8 9 9 10 10 9 9 9 10 nan
nan 8 8 8 9 9 10 10 11 10 9 8 7 6 7 8 10 10 10 9 9 9 9 10 9 9 10 10 11 11 11 10 9 9 9 9 10 10 11 13 14 14 14 12 9 9 13 15 14 15 15 13 9 7 5 6 7 8 8 8 9 9 10 9 8 9 9 10 nan
nan 8 8 8 9 10 10 10 10 8 7 7 7 7 8 9 11 10 9 9 9 9 9 10 11 11 11 11 11 11 11 11 10 10 10 10 11 12 13 13 13 12 11 5 -0 3 10 12 12 14 14 11 8 6 6 8 8 8 8 9 9 9 9 9 9 10 11 12 nan
nan 8 8 9 9 9 9 8 7 7 7 8 8 9 9 10 11 10 10 9 9 9 10 13 13 11 11 11 10 10 11 11 11 11 10 11 11 12 13 12 11 10 6 -0 -0 3 5 7 11 14 13 11 8 8 9 10 9 9 10 10 10 9 9 9 9 10 11 12 nan
nan 8 8 8 8 8 8 7 7 8 8 9 9 9 10 10 10 10 10 10 10 11 13 14 12 11 11 11 10 10 11 10 11 11 11 11 11 12 12 12 11 7 -0 -4 -1 3 5 6 8 12 15 13 10 10 10 9 10 11 12 13 12 10 9 9 10 10 10 9 nan
nan 8 8 7 7 8 8 8 8 9 9 9 9 9 9 9 9 10 10 9 10 12 13 12 12 12 11 10 9 10 10 10 11 11 12 12 12 12 12 11 8 2 -4 -6 0 4 6 7 9 11 15 14 13 11 11 11 12 13 14 14 14 13 12 11 10 9 9 8 nan
nan 8 8 7 8 8 9 9 9 9 9 9 9 8 9 10 10 10 10 10 11 12 11 10 11 10 8 7 9 10 11 11 11 11 10 11 11 11 11 10 6 1 -4 -2 3 6 7 8 10 12 12 14 16 13 12 12 12 12 13 13 12 11 10 9 7 7 7 8 nan
nan 8 8 7 8 9 9 9 8 9 9 9 8 9 10 10 10 10 11 12 11 11 10 9 8 7 7 8 10 10 10 10 10 10 9 9 9 9 9 8 6 3 -1 1 5 7 8 9 11 12 12 15 18 14 12 10 10 11 11 11 9 8 7 7 7 7 7 7 nan
nan 8 8 8 8 9 9 8 8 9 9 9 8 9 9 9 10 12 12 12 11 10 9 9 8 8 9 10 10 9 8 9 10 9 9 8 8 9 9 9 8 5 0 1 6 9 11 11 12 13 14 19 21 16 12 10 11 11 11 9 8 8 9 11 12 10 8 7 nan
nan 8 8 8 8 8 8 8 8 9 9 9 9 9 9 9 11 12 12 11 10 10 10 9 9 9 10 10 10 9 9 10 10 9 8 9 10 10 9 10 10 6 1 2 8 12 13 14 14 15 16 22 24 17 14 13 13 13 12 11 11 11 12 12 11 10 10 11 nan
nan 8 9 9 8 8 8 8 8 9 8 9 9 9 10 10 11 11 11 11 11 10 10 9 9 10 10 11 10 10 10 10 10 10 10 10 10 10 9 12 11 5 1 5 11 14 15 15 16 17 18 24 26 19 15 14 15 13 12 12 12 12 13 12 11 11 12 13 nan
nan 8 9 8 8 7 7 8 8 8 9 9 9 10 11 12 11 11 11 11 11 10 10 10 10 11 11 10 10 10 10 10 10 10 10 10 11 11 12 13 8 1 -0 7 13 14 14 14 15 17 20 27 26 18 12 12 13 10 9 9 11 12 13 14 13 13 13 14 nan
nan 8 8 8 8 7 7 8 8 8 9 9 9 11 12 12 11 11 11 10 10 10 10 10 11 11 11 10 10 9 8 8 9 9 10 11 11 12 12 12 5 -2 0 8 11 11 11 12 13 17 24 29 23 14 9 11 11 9 8 9 10 11 12 13 13 12 12 13 nan
nan 8 8 8 8 8 8 7 8 8 8 8 10 11 11 11 11 11 11 11 10 10 10 10 10 10 10 10 9 9 8 8 9 10 11 12 12 12 13 12 7 -0 -0 5 9 9 10 11 13 18 26 28 19 11 9 11 11 9 9 10 10 9 10 11 10 10 10 10 nan
nan 8 9 8 8 8 8 8 8 8 8 9 10 11 11 11 11 11 11 11 10 10 10 10 9 9 8 9 8 8 8 9 10 10 10 12 12 12 12 12 9 3 -2 -0 6 8 9 10 12 19 28 25 13 10 11 13 11 8 9 10 10 9 11 11 9 9 8 7 nan
nan 9 9 9 8 8 8 8 8 9 9 10 11 11 11 11 11 11 11 10 10 9 10 10 8 8 8 8 9 9 9 11 11 10 10 11 12 12 12 12 10 5 -4 -4 4 7 9 9 11 17 27 22 12 12 13 12 10 9 9 10 10 9 11 12 11 10 8 4 nan
nan 9 9 8 8 8 8 9 10 10 11 11 10 10 10 10 10 10 10 10 9 9 9 8 7 7 8 10 11 11 11 11 12 12 11 10 9 10 13 13 9 4 -4 -5 2 7 9 9 10 15 25 24 15 13 12 10 9 9 10 11 10 10 12 12 11 11 9 5 nan
nan 9 9 8 8 9 10 11 11 12 12 10 9 10 10 10 10 9 10 11 9 9 8 8 7 8 9 11 12 11 11 11 11 11 10 8 5 6 14 15 9 5 -3 -5 1 6 9 9 10 14 25 25 15 13 11 9 9 9 10 10 10 11 11 10 11 12 12 11 nan
nan nan nan nan nan nan nan nan nan nan nan nan nan nan nan nan nan nan nan nan nan nan nan nan nan nan nan nan nan nan nan nan nan nan nan nan nan nan nan nan nan nan nan nan nan nan nan nan nan nan nan nan nan nan nan nan nan nan nan nan nan nan nan nan nan nan nan nan nan
CAPE
nan nan nan nan nan nan nan nan nan nan nan nan nan nan nan nan nan nan nan nan nan nan nan nan nan nan nan nan nan nan nan nan nan nan nan nan nan nan nan nan nan nan nan nan nan nan nan nan nan nan nan nan nan nan nan nan nan nan nan nan nan nan nan nan nan nan nan nan nan
nan nan nan nan nan nan nan nan nan nan nan nan nan nan nan nan nan nan nan nan nan nan nan nan nan nan nan nan nan nan nan nan nan nan nan nan nan nan nan nan nan nan nan nan nan nan nan nan nan nan nan nan 0 3 3 nan nan nan nan nan nan nan nan 0 nan nan nan nan nan
nan nan nan nan nan nan nan nan nan nan nan nan nan nan nan nan nan nan nan nan nan nan nan nan nan nan nan nan nan nan nan nan nan nan nan nan nan nan nan nan nan nan nan nan nan nan nan nan nan nan nan 1 4 1 1 nan nan nan nan nan nan 5 5 5 1 1 0 0 nan
nan nan nan nan nan nan nan nan nan nan nan nan nan nan nan nan nan nan nan nan nan nan nan nan nan nan nan nan nan nan nan nan nan nan nan nan nan nan nan nan nan nan nan nan nan nan nan nan nan nan 0 nan nan nan nan nan nan nan nan nan 8 5 5 3 nan nan 5 4 nan
nan nan nan nan nan nan nan nan nan nan nan nan nan nan nan nan nan nan nan nan nan nan nan nan nan nan nan nan nan nan nan nan nan nan nan nan nan nan nan nan nan nan nan nan nan nan 0 nan nan nan nan nan 1 1 1 0 nan 2 2 9 13 9 9 8 4 4 2 5 0
nan nan nan nan nan nan nan nan nan nan nan nan nan nan nan nan nan nan nan nan nan nan nan nan nan nan nan nan nan nan nan nan nan nan nan nan nan nan nan nan nan nan nan nan nan nan 0 nan 0 0 nan nan 1 nan nan nan 3 7 7 7 5 7 7 8 6 6 5 10 3
nan nan nan nan nan nan nan nan nan nan nan nan nan nan nan nan nan nan nan nan nan nan nan nan nan nan nan nan nan nan nan nan nan nan nan nan nan nan nan nan nan nan nan nan nan nan nan nan 0 0 nan 0 3 nan nan 2 5 3 3 2 4 6 6 9 10 10 10 5 nan
nan nan nan nan nan nan nan nan nan nan nan nan nan nan nan nan nan nan nan nan nan nan nan nan nan nan nan nan nan nan nan nan nan nan nan nan nan nan nan nan nan nan nan 1 1 1 nan nan 0 0 1 3 5 3 3 nan nan 0 0 1 5 8 8 5 8 8 5 0 nan
nan nan nan nan nan nan nan nan nan nan nan nan nan nan nan nan nan nan nan nan nan nan nan nan nan nan nan nan nan nan nan nan nan nan nan nan nan nan nan nan nan nan nan nan 4 4 4 0 0 0 1 4 6 1 1 nan nan nan nan 4 13 17 17 12 4 4 2 1 2
nan nan nan nan nan nan nan nan nan nan nan nan nan nan nan nan nan nan nan nan nan nan nan nan nan nan nan nan nan nan nan nan nan nan nan nan nan nan nan nan nan nan nan nan 0 0 8 4 1 1 nan nan 5 nan nan 2 11 15 15 23 20 12 12 1 nan nan nan 3 8
nan nan nan nan nan nan nan nan nan nan nan nan nan nan nan nan nan nan nan nan nan nan nan nan nan nan nan nan nan nan nan nan nan nan nan nan nan nan nan nan nan nan nan nan 0 0 8 9 11 11 16 0 nan 0 0 11 20 21 21 24 15 7 7 nan nan nan nan nan 9
nan nan nan nan nan nan nan nan nan nan nan nan nan nan nan nan nan nan nan nan nan nan nan nan nan nan nan nan nan nan nan nan nan nan nan nan nan nan nan nan nan nan nan nan 3 3 8 12 16 16 3 3 2 6 6 10 10 8 8 7 5 1 1 nan nan nan nan 0 2
nan nan nan nan nan nan nan nan nan nan nan nan nan nan nan nan nan nan nan nan nan nan nan nan nan nan nan nan nan nan nan nan nan nan nan 0 nan nan nan nan nan nan nan nan 4 4 6 5 6 6 1 10 8 5 5 14 12 7 7 8 1 2 2 5 3 3 2 5 3
nan nan nan nan nan nan nan nan nan nan nan nan nan nan nan nan nan nan nan nan nan nan nan nan nan nan nan nan nan nan nan nan nan 0 0 0 nan nan nan nan nan nan nan nan 5 5 6 2 5 5 5 5 8 1 1 12 17 17 17 16 19 24 24 27 25 25 18 16 8
nan nan nan nan 1 1 1 0 nan nan nan 2 nan nan nan nan nan nan nan nan nan nan nan nan nan nan nan nan nan nan nan nan 0 1 1 0 nan nan nan nan nan 0 0 1 nan nan nan nan 1 1 5 3 3 6 6 16 23 26 26 26 26 29 29 34 36 36 33 23 16
nan nan nan nan 1 1 nan nan nan nan 0 2 0 nan nan nan nan nan nan nan nan 0 0 nan nan 0 0 nan nan nan nan 0 1 1 1 0 0 nan nan 0 nan nan nan nan nan nan nan 2 2 2 3 4 6 14 14 22 24 26 26 27 26 29 29 27 31 31 32 27 20
nan nan nan nan nan nan 0 1 2 2 3 1 nan nan nan nan 1 0 0 nan 1 1 1 1 0 0 0 1 0 0 0 1 1 0 0 0 0 nan nan nan nan nan nan nan nan nan nan 0 2 2 3 2 5 10 10 11 17 21 21 17 15 26 26 28 28 28 25 16 7
2 4 4 2 2 2 3 5 6 6 6 1 nan 2 2 2 2 3 3 2 2 2 2 2 1 1 1 1 1 1 1 1 0 nan nan nan nan nan nan nan nan nan nan nan nan nan nan nan nan nan nan 2 7 9 9 13 19 26 26 35 33 19 19 7 nan nan nan nan nan
1 3 3 2 2 2 5 5 6 6 4 3 2 3 3 3 2 2 2 2 2 2 2 1 0 nan nan 0 1 1 1 0 nan nan nan nan nan nan nan nan nan nan nan nan nan nan nan 0 nan nan 5 6 7 9 9 19 28 36 36 33 19 1 1 nan nan nan nan nan nan
2 3 3 2 4 4 5 7 6 6 5 3 4 5 5 3 2 3 3 2 1 1 1 1 1 0 0 0 0 0 0 0 nan nan nan nan nan nan nan nan nan nan nan nan nan nan nan 0 4 4 4 5 9 14 14 27 31 25 25 10 10 2 2 1 nan nan nan nan nan
2 2 2 2 4 4 5 6 9 9 10 9 7 4 4 3 2 3 3 2 1 2 2 2 2 1 1 1 nan nan nan nan nan nan nan nan nan nan nan nan nan 0 0 1 2 2 4 5 4 4 3 6 8 17 17 21 15 10 10 9 9 5 5 7 3 3 4 5 nan
nan nan nan 1 3 3 2 8 9 9 12 8 7 7 7 5 3 3 3 3 3 5 5 3 2 1 1 1 0 0 0 nan nan nan nan nan nan nan nan 0 2 3 3 2 2 2 3 4 4 4 5 5 9 14 14 12 5 3 3 5 8 12 12 12 10 10 12 14 7
nan nan nan nan 1 1 14 12 11 11 11 6 5 4 4 2 3 6 6 6 6 7 7 4 3 1 1 0 nan nan nan nan nan nan nan nan nan nan nan nan nan nan nan nan 0 0 1 2 5 5 12 10 6 5 5 7 6 4 4 5 7 10 10 10 13 13 15 13 15
nan nan nan 1 10 10 11 13 9 9 5 3 4 2 2 1 2 5 5 7 4 5 5 3 0 nan nan nan nan nan nan nan nan nan nan nan nan nan nan nan nan nan nan 0 3 3 5 1 5 5 5 4 2 3 3 6 4 5 5 7 7 7 7 8 10 10 14 13 14
nan nan nan 9 8 8 10 8 1 1 1 5 5 5 5 2 2 4 4 7 6 5 5 3 nan nan nan nan nan nan nan nan nan nan nan nan nan nan nan nan nan 1 1 1 9 9 11 6 8 8 2 0 1 5 5 7 7 9 9 9 7 7 7 7 8 8 11 9 8
nan nan nan 9 9 9 8 1 1 1 5 5 5 6 6 5 3 5 5 6 5 5 5 nan nan nan nan nan nan nan nan nan nan nan nan nan nan nan nan nan nan 0 0 1 5 5 7 11 9 9 1 0 4 6 6 5 7 9 9 9 9 7 7 5 5 5 6 10 3
1 nan nan 8 7 7 7 5 5 5 5 5 5 6 6 6 3 5 5 5 5 1 1 nan nan nan nan nan nan nan nan nan nan nan nan nan nan nan nan nan nan nan nan nan 1 1 2 4 6 6 4 2 6 7 7 5 7 8 8 8 8 7 7 5 3 3 5 8 9
nan nan nan 5 5 5 5 6 6 6 5 5 5 6 6 6 6 5 5 4 2 nan nan nan nan nan nan nan nan nan nan nan nan nan nan nan nan nan nan nan nan nan nan nan nan nan nan 1 4 4 6 2 5 5 5 5 6 6 6 6 7 7 7 5 5 5 5 6 8
nan 0 0 4 4 4 5 6 5 5 5 6 6 6 6 5 5 4 4 3 nan nan nan nan nan nan nan nan nan nan nan nan nan nan nan nan nan nan nan nan nan nan nan nan nan nan 0 2 3 3 8 8 2 1 1 3 4 5 5 5 5 5 5 6 6 6 5 5 6
nan 3 3 4 3 3 4 5 5 5 5 6 5 5 5 5 5 1 1 nan nan nan nan nan nan nan nan nan nan nan nan nan nan nan nan nan nan nan nan nan nan nan nan nan nan nan 0 3 5 5 8 8 3 4 4 2 2 4 4 5 6 8 8 6 7 7 6 5 7
nan 3 3 4 3 3 4 5 4 4 5 5 5 5 5 4 2 nan nan nan nan nan nan nan nan nan nan nan nan nan nan nan nan nan nan nan nan nan nan nan nan nan nan nan nan nan 1 6 7 7 7 8 3 4 4 5 5 5 5 8 10 10 10 7 6 6 7 8 8
2 5 5 4 4 4 4 4 4 4 4 4 4 4 4 3 nan nan nan nan nan nan nan nan nan nan nan nan nan nan nan nan nan nan nan nan nan nan nan nan nan nan nan nan nan nan 3 10 10 10 12 13 3 7 7 7 9 12 12 15 15 13 13 8 9 9 9 9 12
3 5 5 2 3 3 3 3 3 3 4 4 5 4 4 2 nan nan nan nan nan nan nan nan nan nan nan nan nan nan nan nan nan nan nan nan nan nan nan nan nan nan nan nan 0 0 4 10 13 13 15 13 1 nan nan 3 10 12 12 14 16 15 15 12 10 10 10 14 17
3 4 4 3 1 1 2 3 3 3 2 3 4 4 4 nan nan nan nan nan nan nan nan nan nan nan nan nan nan nan nan nan nan nan nan nan nan nan nan nan nan nan nan nan 0 0 2 5 7 7 9 7 nan nan nan 1 3 6 6 10 13 16 16 17 16 16 20 27 32
1 1 1 0 0 0 1 3 3 3 2 1 2 nan nan nan nan nan nan nan nan nan nan nan nan nan nan nan nan nan nan nan nan nan nan nan nan nan nan nan nan nan nan nan nan nan 1 2 3 3 7 1 nan nan nan 1 2 4 4 7 11 18 18 23 29 29 31 34 36
0 nan nan nan nan nan 2 2 2 2 2 2 0 nan nan nan nan nan nan nan nan nan nan nan nan nan nan nan nan nan nan nan nan nan nan nan nan nan nan nan nan nan nan nan nan nan 0 0 1 1 6 nan nan nan nan 4 5 5 5 6 8 10 10 19 22 22 23 24 27
nan nan nan nan nan nan nan nan nan nan nan nan nan nan nan nan nan nan nan nan nan nan nan nan nan nan nan nan nan nan nan nan nan nan nan nan nan nan nan nan nan nan nan nan nan nan nan 0 1 1 1 nan nan 1 1 5 5 5 5 5 5 6 6 10 12 12 13 15 19
0 nan nan nan nan nan nan nan nan nan nan nan nan nan nan nan nan nan nan nan nan nan nan nan nan nan nan nan nan nan nan nan nan nan nan nan nan nan nan nan nan nan nan nan nan nan nan 1 1 1 0 nan nan 2 2 2 1 2 2 2 3 3 3 3 2 2 4 7 6
nan nan nan nan nan nan nan nan nan nan nan nan nan nan nan nan nan nan nan nan nan nan nan nan nan nan nan nan nan nan nan nan nan nan nan nan nan nan nan nan nan nan nan nan nan nan nan 0 1 1 1 nan nan nan nan 0 nan 0 0 1 0 0 0 0 0 0 0 4 14
nan nan nan nan nan nan nan nan nan nan nan nan nan nan nan nan nan nan nan nan nan nan nan nan nan nan nan nan nan nan nan nan nan nan nan nan nan nan nan nan nan nan nan nan nan nan nan 0 1 1 2 nan nan nan nan nan nan 0 0 nan nan nan nan nan nan nan 0 4 24
nan nan nan nan nan nan nan nan nan nan nan nan nan nan nan nan nan nan nan nan nan nan nan nan nan nan nan nan nan nan nan nan nan nan nan nan nan nan nan nan nan nan nan nan nan nan 0 0 1 1 3 nan nan nan nan nan nan nan nan nan nan nan nan nan 0 0 2 5 14